Вернуться в каталог

GONETS M 07

АктивенСвязьPO
NORAD 39251·PAYLOAD·🇷🇺 Russia

Запущен Sep 11, 2013 с Plesetsk Cosmodrome

Loading…

Ближайшие Пролёты (ближайшие 24 часа)

TLE

СвежийSource: Space-Track

Эпоха: Sep 14, 2026, 14:07 UTC

1 39251U 13048C   26257.58856438  .00000105  00000-0  68742-3 0  9991
2 39251  82.4857 290.6229 0017684  23.6924 336.4967 12.42917702589946

Отслеживайте GONETS M 07 в реальном времени с AllMySat

Download on the App Store